Weather in Kovalivka

Ukraine / Poltava Region     50°01′22″N   34°03′37″E
temp.,
°C
wind,
m/s
gust,
m/s
humid.,
%
clouds,
%
prec.,
mm/h
press.,
hPa
HPBL,
m
17 september, fri
fri1700:00+10ese22486 0.0 101918
03:00+10se224982 0.0 101921
06:00+9s3357100 0.0 101728
09:00+16s344199 0.0 1016317
12:00+22s443275 0.0 10151469
15:00+24ssw5528100 0.0 10131797
18:00+21sse343798 0.0 1012110
21:00+19sse5103959 0.0 1011297
18 september, sat
sat1800:00+18sse494497 0.1 1011298
03:00+13se41093100 6.5 1010269
06:00+13sse61296100 10.4 1010378
09:00+15sse61384100 12.1 1009598
12:00+13s91689100 2.8 1010618
15:00+14sse71585100 5.6 1009588
18:00+15sse71473100 0.3 1008523
21:00+13sse61393100 7.6 1008555
19 september, sun
sun1900:00+14se61392100 9.1 1007561
03:00+13s3897100 13.7 1007487
06:00+12wsw3597100 0.1 1008123
09:00+14w34835 0.1 1009327
12:00+18wsw346170 0.0 1009945
15:00+19ssw235461 0.0 10081257
18:00+17s3568100 0.3 1007120
21:00+14sw379137 4.1 1007316
20 september, mon
mon2000:00+9w489093 0.1 1009389
03:00+9sw378699 0.1 1009560
06:00+9sw3683100 0.0 1009570
09:00+9wsw4682100 0.1 1009664
12:00+9sw4677100 0.1 1010949
15:00+9sw5780100 0.3 1011794
18:00+9sw4887100 0.1 1011631
21:00+8wsw4891100 0.2 1012605
21 september, tue
tue2100:00+9w5890100 0.0 1014528
03:00+9w5988100 0.0 1015715
06:00+7wsw4887100 0.0 1015486
09:00+8wsw5777100 0.1 1015796
12:00+9w5762100 0.1 10151424
15:00+9wsw5860100 0.1 10161372
18:00+8w4861100 0.0 1015927
21:00+8sw3665100 0.0 1015403